Station GISL1 - 8761724 - Grand Isle, LA Image indicating link to RSS feed of recent meteorological observations for station GISL1


Conditions at GISL1 as of
(7:54 am CDT)
1254 GMT on 09/01/2026:
     

Click on the graph icon in the table below to see a time series plot of the last five days of that observation.

5-day plot - Wind Direction Wind Direction (WDIR):SSE ( 160 deg true )
5-day plot - Wind Speed Wind Speed (WSPD): 5.1 kts
5-day plot - Wind Gust Wind Gust (GST): 8.0 kts
5-day plot - Atmospheric Pressure Atmospheric Pressure (PRES):30.04 in
5-day plot - Air Temperature Air Temperature (ATMP): 84.7 °F
5-day plot - Water Temperature Water Temperature (WTMP): 85.3 °F
5-day plot - Wind Speed at 10 Meters Wind Speed at 10 meters (WSPD10M): 5.8 kts
5-day plot - Wind Speed at 20 Meters Wind Speed at 20 meters (WSPD20M): 5.8 kts
5-day plot -  Wind Speed, Wind Gust and Atmospheric Pressure Combined plot of Wind Speed, Gust, and Air Pressure
NOS Water Level Observation Network Water Level
Previous observations
TIME
(CDT)
5-day plot - Wind Direction
WDIR
 
5-day plot - Wind Speed
WSPD
kts
5-day plot - Wind Gust
GST
kts
5-day plot - Wave Height
WVHT
ft
5-day plot - Dominant Wave Period
DPD
sec
5-day plot - Average Wave Period
APD
sec
5-day plot - Mean Wave Direction
MWD
 
5-day plot - Atmospheric Pressure
PRES
in
5-day plot - Pressure Tendency
PTDY
in
5-day plot - Air Temperature
ATMP
°F
5-day plot - Water Temperature
WTMP
°F
5-day plot - Dew Point
DEWP
°F
5-day plot - Salinity
SAL
psu
5-day plot - Visibility
VIS
nmi
5-day plot - Tide (above MLLW)
TIDE
ft
2026-09-01 07:48 amSSE 5.1 8.9----30.03-- 85.3----
2026-09-01 07:42 amSSE 7.0 11.1----30.03-- 85.3----
2026-09-01 07:36 amSSE 6.0 11.1----30.03-- 85.3----
2026-09-01 07:30 amSSE 6.0 9.9----30.03- 84.9 85.3----
2026-09-01 07:24 am SE 6.0 9.9----30.03- 84.6 85.3----
2026-09-01 07:18 am SE 5.1 8.9----30.03-- 85.3----
2026-09-01 07:12 am SE 5.1 8.9----30.02-- 85.3----
2026-09-01 07:06 amSSE 6.0 9.9----30.02-- 85.3----
2026-09-01 07:00 amSSE 5.1 8.9----30.02+0.03 83.8 85.3----
2026-09-01 06:54 amSSE 5.1 8.9----30.02- 84.0 85.5----
2026-09-01 06:48 amSSE 7.0 11.1----30.01- 84.0 85.5----
2026-09-01 06:42 am SE 6.0 11.1----30.01- 83.7 85.5----
2026-09-01 06:36 amSSE 6.0 11.1----30.01- 83.7 85.5----
2026-09-01 06:30 am SE 5.1 9.9----30.01- 83.7 85.5----
2026-09-01 06:24 am SE 5.1 11.1----30.01- 83.5 85.5----
2026-09-01 06:18 am SE 6.0 12.0----30.00-- 85.5----
2026-09-01 06:12 am SE 6.0 12.0----30.00-- 85.5----
2026-09-01 06:06 am SE 5.1 9.9----30.00-- 85.5----
2026-09-01 06:00 am SE 7.0 12.0----29.99+0.00 83.7 85.5----
2026-09-01 05:54 am SE 8.0 9.9----29.99- 83.7 85.5----
2026-09-01 05:48 am SE 6.0 9.9----29.99- 83.7 85.5----
2026-09-01 05:42 am SE 4.1 12.0----29.99- 83.7 85.5----
2026-09-01 05:36 am SE 5.1 9.9----29.98- 83.7 85.5----
2026-09-01 05:30 am SE 6.0 9.9----29.98- 83.7 85.5----
2026-09-01 05:24 am SE 4.1 9.9----29.98- 83.7 85.5----
2026-09-01 05:18 am SE 6.0 12.0----29.98-- 85.5----
2026-09-01 05:12 am SE 6.0 11.1----29.98-- 85.5----
2026-09-01 05:06 am SE 5.1 12.0----29.98-- 85.5----
2026-09-01 05:00 am SE 6.0 12.0----29.99- 83.8 85.5----
2026-09-01 04:54 am SE 6.0 12.0----29.99- 83.7 85.5----
2026-09-01 04:48 am SE 5.1 12.0----29.99- 83.8 85.5----
2026-09-01 04:42 am SE 6.0 9.9----29.99- 83.8 85.5----
2026-09-01 04:36 am SE 8.0 11.1----29.99- 83.8 85.5----
2026-09-01 04:30 am SE 4.1 9.9----29.99- 83.7 85.5----
2026-09-01 04:24 am SE 6.0 11.1----29.99- 83.7 85.5----
2026-09-01 04:18 am SE 8.0 12.0----29.99-- 85.5----
2026-09-01 04:12 am SE 6.0 12.0----29.98-- 85.5----
2026-09-01 04:06 am SE 5.1 9.9----29.99-- 85.5----
2026-09-01 04:00 am SE 5.1 13.0----29.99-0.01 83.7 85.5----
2026-09-01 03:54 am SE 6.0 12.0----29.99- 83.8 85.5----
2026-09-01 03:48 am SE 7.0 11.1----29.99-- 85.5----
2026-09-01 03:42 am SE 6.0 11.1----29.99-- 85.5----
2026-09-01 03:36 am SE 6.0 13.0----29.99-- 85.5----
2026-09-01 03:30 am SE 6.0 15.9----29.98- 83.8 85.5----
2026-09-01 03:24 am SE 5.1 12.0----29.98- 83.8 85.5----
2026-09-01 03:18 am SE 7.0 12.0----29.99-- 85.5----
2026-09-01 03:12 am SE 7.0 13.0----29.99-- 85.5----
2026-09-01 03:06 am SE 8.0 13.0----29.99-- 85.5----
2026-09-01 03:00 am SE 7.0 13.0----29.99-0.01 84.0 85.5----
2026-09-01 02:54 am SE 8.0 14.0----29.99- 84.0 85.5----
2026-09-01 02:48 am SE 7.0 12.0----29.99- 84.0 85.5----
2026-09-01 02:42 am SE 6.0 12.0----29.99- 84.0 85.5----
2026-09-01 02:36 am SE 6.0 12.0----29.99- 84.0 85.5----
2026-09-01 02:30 am SE 5.1 12.0----30.00- 84.0 85.5----
2026-09-01 02:24 am SE 6.0 12.0----30.00- 83.8 85.5----
2026-09-01 02:18 am SE 7.0 13.0----30.00- 84.4 85.5----
2026-09-01 02:12 am SE 6.0 12.0----30.00- 84.0 85.5----
2026-09-01 02:06 am SE 8.0 12.0----30.00- 84.2 85.5----
2026-09-01 02:00 am SE 8.0 13.0------ 84.0 85.5----
2026-09-01 01:54 am SE 8.0 13.0------ 84.0 85.5----
2026-09-01 01:48 am SE 9.9 14.0----30.01- 84.2 85.5----
2026-09-01 01:42 am SE 8.0 14.0----30.01- 84.2 85.5----
2026-09-01 01:36 am SE 7.0 14.0----30.01- 84.4 85.5----
2026-09-01 01:30 amESE 8.0 15.9----30.01-- 85.5----
2026-09-01 01:24 am SE 8.0 12.0----30.01-- 85.5----
2026-09-01 01:18 am SE 5.1 14.0----30.01-- 85.5----
2026-09-01 01:12 am SE 8.0 14.0----30.00-- 85.5----
2026-09-01 01:06 am SE 9.9 17.1----30.00-- 85.5----
2026-09-01 01:00 am SE 8.9 15.9----30.00+0.00 84.2 85.5----
2026-09-01 12:54 am SE 9.9 15.0----30.00- 84.2 85.5----
2026-09-01 12:48 am SE 12.0 18.1----30.00- 84.4 85.5----
2026-09-01 12:42 amESE 12.0 19.0----30.00- 84.2 85.5----
2026-09-01 12:36 amESE 8.0 15.9----30.00- 84.2 85.6----
2026-09-01 12:30 am SE 12.0 17.1----30.01- 84.0 85.6----
2026-09-01 12:24 amESE 9.9 19.0----30.01- 84.4 85.6----
2026-09-01 12:18 amESE 11.1 18.1----30.01-- 85.6----
2026-09-01 12:12 amESE 9.9 17.1----30.01-- 85.6----
2026-09-01 12:06 amESE 11.1 19.0----30.00-- 85.6----
2026-09-01 12:00 amESE 9.9 19.0----30.01+0.01 84.2 85.6----
2026-08-31 11:54 pm SE 11.1 17.1----30.01- 84.2 85.6----
2026-08-31 11:48 pmESE 9.9 17.1----30.01- 84.2 85.6----
2026-08-31 11:42 pmESE 14.0 19.0----30.01- 84.2 85.6----
2026-08-31 11:36 pmESE 11.1 18.1----30.01- 84.2 85.6----
2026-08-31 11:30 pmESE 9.9 15.9----30.01- 84.0 85.6----
2026-08-31 11:24 pmESE 12.0 17.1----30.01- 84.4 85.6----
2026-08-31 11:18 pmESE 9.9 18.1----30.01-- 85.6----
2026-08-31 11:12 pmESE 13.0 18.1----30.01-- 85.6----
2026-08-31 11:06 pmESE 12.0 17.1----30.01-- 85.6----
2026-08-31 11:00 pmESE 8.9 17.1----30.01+0.04 84.2 85.6----
2026-08-31 10:54 pmESE 11.1 15.9----30.01- 84.2 85.6----
2026-08-31 10:48 pmESE 9.9 15.9----30.01-- 85.6----
2026-08-31 10:42 pmESE 11.1 15.9----30.01-- 85.6----
2026-08-31 10:36 pmESE 12.0 17.1----30.01-- 85.6----
2026-08-31 10:30 pmESE 11.1 18.1----30.01- 84.2 85.6----
2026-08-31 10:24 pmESE 9.9 15.9----30.01- 84.0 85.6----
2026-08-31 10:18 pmESE 11.1 18.1------- 85.6----
2026-08-31 10:12 pmESE 9.9 15.9------- 85.6----
2026-08-31 10:06 pmESE 12.0 20.0------- 85.6----
2026-08-31 10:00 pmESE 9.9 15.0----30.01+0.04 83.8 85.6----
2026-08-31 09:54 pmESE 7.0 15.0----30.00- 83.8 85.6----
2026-08-31 09:48 pmESE 6.0 13.0----30.00- 83.8 85.6----
2026-08-31 09:42 pmESE 9.9 15.0----30.00- 83.7 85.6----
2026-08-31 09:36 pmESE 7.0 13.0----30.00- 83.7 85.6----
2026-08-31 09:30 pmESE 6.0 13.0----30.00- 83.7 85.6----
2026-08-31 09:24 pmESE 8.9 15.9----30.00- 83.5 85.6----
2026-08-31 09:18 pmESE 8.0 15.0----30.00-- 85.6----
2026-08-31 09:12 pmESE 8.9 17.1----30.00-- 85.6----
2026-08-31 09:06 pmESE 8.0 15.0----29.99-- 85.6----
2026-08-31 09:00 pm E 8.9 14.0----29.99+0.00 83.5 85.6----
2026-08-31 08:54 pm E 11.1 17.1----29.99- 83.5 85.6----
2026-08-31 08:48 pmESE 9.9 15.9----29.99- 83.5 85.6----
2026-08-31 08:42 pm E 8.9 15.9----29.99- 83.5 85.6----
2026-08-31 08:36 pmESE 8.0 15.0----29.99- 83.5 85.6----
2026-08-31 08:30 pmESE 7.0 13.0----29.98- 83.5 85.6----
2026-08-31 08:24 pmESE 8.9 14.0----29.98- 83.5 85.6----
2026-08-31 08:18 pmESE 9.9 18.1----29.98-- 85.6----
2026-08-31 08:12 pmESE 7.0 15.0----29.98-- 85.6----
2026-08-31 08:06 pmESE 7.0 14.0----29.98-- 85.6----
2026-08-31 08:00 pmESE 7.0 15.0----29.98-0.01 83.5 85.6----
2026-08-31 07:54 pmESE 8.0 15.9----29.97- 83.7 85.6----
2026-08-31 07:48 pmESE 8.9 15.0----29.97-- 85.6----
2026-08-31 07:42 pmESE 8.9 14.0----29.97-- 85.6----
2026-08-31 07:36 pm E 9.9 15.0----29.97-- 85.6----
2026-08-31 07:30 pmESE 8.9 17.1----29.97- 83.7 85.6----
2026-08-31 07:24 pm E 8.9 17.1----29.97- 83.8 85.6----
2026-08-31 07:18 pm E 13.0 18.1----29.97-- 85.6----
2026-08-31 07:12 pm E 13.0 18.1----29.97-- 85.6----
2026-08-31 07:06 pm E 11.1 17.1----29.97-- 85.6----
2026-08-31 07:00 pm E 8.9 18.1----29.97-0.03 84.0 85.6----
2026-08-31 06:54 pm E 13.0 17.1----29.97- 84.0 85.6----
2026-08-31 06:48 pm E 12.0 18.1----29.97-- 85.6----
2026-08-31 06:42 pm E 13.0 18.1----29.97-- 85.6----
2026-08-31 06:36 pm E 12.0 17.1----29.97-- 85.6----
2026-08-31 05:48 pm E 8.9 15.9----29.98- 84.4 85.6----
2026-08-31 05:42 pmESE 8.0 15.0----29.99- 84.6 85.6----
2026-08-31 05:36 pm E 8.9 13.0----29.99- 84.6 85.6----
2026-08-31 05:30 pmESE 8.0 13.0----29.99- 84.6 85.6----
2026-08-31 05:24 pmESE 8.0 14.0----29.99- 84.4 85.6----
2026-08-31 05:18 pmESE 8.0 12.0----29.99- 84.4 85.6----
2026-08-31 05:12 pmESE 6.0 14.0----29.99- 84.4 85.6----
2026-08-31 05:06 pmESE 8.0 14.0----29.99- 84.2 85.6----
2026-08-31 05:00 pmESE 7.0 13.0----29.99-0.02 84.4 85.6----
2026-08-31 04:54 pmESE 6.0 15.0----29.99- 84.6 85.6----
2026-08-31 04:48 pmESE 9.9 15.9----29.99- 84.2 85.6----
2026-08-31 04:42 pmESE 7.0 14.0----29.99- 84.4 85.6----
2026-08-31 04:36 pm E 8.9 14.0----29.99- 84.2 85.6----
2026-08-31 04:30 pm E 9.9 15.0----29.99- 84.2 85.6----
2026-08-31 04:24 pmESE 7.0 13.0----29.99- 84.0 85.6----
2026-08-31 04:18 pmESE 7.0 14.0----29.99-- 85.6----
2026-08-31 04:12 pmESE 6.0 12.0----29.99-- 85.6----
2026-08-31 04:06 pmESE 8.0 14.0----30.00-- 85.6----
2026-08-31 04:00 pmESE 7.0 12.0----30.00-0.03 83.7 85.6----
2026-08-31 03:54 pmESE 6.0 14.0----30.00- 84.0 85.6----
2026-08-31 03:48 pm E 8.0 12.0----30.00- 84.2 85.6----
2026-08-31 03:42 pm E 5.1 12.0----30.00- 84.7 85.6----
2026-08-31 03:36 pm E 8.0 15.0----30.01- 84.4 85.6----
2026-08-31 03:30 pm E 7.0 14.0----30.01- 84.2 85.6----
2026-08-31 03:24 pm E 8.9 13.0----30.01- 84.4 85.6----
2026-08-31 03:18 pmESE 7.0 14.0----30.01-- 85.6----
2026-08-31 03:12 pm E 9.9 15.0----30.01-- 85.6----
2026-08-31 03:06 pmESE 8.0 13.0----30.01-- 85.6----
2026-08-31 03:00 pmESE 8.0 13.0----30.01-0.02 85.5 85.6----
2026-08-31 02:54 pmESE 6.0 15.0----30.01- 85.6 85.6----
2026-08-31 02:48 pmESE 7.0 13.0----30.01- 85.8 85.6----
2026-08-31 02:42 pmESE 8.0 13.0----30.01- 85.6 85.6----
2026-08-31 02:36 pmESE 8.0 14.0----30.01- 85.5 85.6----
2026-08-31 02:30 pmESE 6.0 13.0----30.01- 85.8 85.6----
2026-08-31 02:24 pm E 7.0 15.9----30.01- 85.5 85.6----
2026-08-31 02:18 pmESE 7.0 14.0----30.01-- 85.6----
2026-08-31 02:12 pm E 8.9 15.0----30.01-- 85.6----
2026-08-31 02:06 pmESE 7.0 13.0----30.01-- 85.6----
2026-08-31 02:00 pmESE 8.0 15.9----30.01-0.02 85.6 85.6----
2026-08-31 01:54 pmESE 7.0 13.0----30.02- 85.6 85.6----
2026-08-31 01:48 pmESE 6.0 15.0----30.02- 85.6 85.6----
2026-08-31 01:42 pmESE 8.9 15.0----30.02- 85.3 85.6----
2026-08-31 01:36 pmESE 8.9 19.0----30.02- 85.1 85.6----
2026-08-31 01:30 pmESE 9.9 15.9----30.02- 85.5 85.6----
2026-08-31 01:24 pmESE 9.9 15.0----30.02- 85.6 85.6----
2026-08-31 01:18 pmESE 8.0 15.0----30.02-- 85.6----
2026-08-31 01:12 pmESE 11.1 17.1----30.03-- 85.6----
2026-08-31 01:06 pmESE 11.1 17.1----30.03-- 85.6----
2026-08-31 01:00 pmESE 8.0 17.1----30.03+0.01 85.6 85.6----
2026-08-31 12:54 pmESE 8.0 17.1----30.03- 84.7 85.6----
2026-08-31 12:48 pmESE 8.9 17.1----30.03-- 85.6----
2026-08-31 12:42 pmESE 8.9 15.9----30.03-- 85.6----
2026-08-31 12:36 pmESE 8.0 14.0----30.03-- 85.6----
2026-08-31 12:30 pmESE 9.9 15.9----30.03- 83.8 85.6----
2026-08-31 12:24 pmESE 8.9 17.1----30.03- 83.7 85.6----
2026-08-31 12:18 pmESE 11.1 17.1----30.03-- 85.6----
2026-08-31 12:12 pmESE 8.0 15.9----30.03-- 85.6----
2026-08-31 12:06 pmESE 9.9 15.9----30.03-- 85.6----
2026-08-31 12:00 pmESE 8.0 15.0----30.03+0.02 83.3 85.6----
2026-08-31 11:54 amESE 8.0 15.9----30.03- 83.3 85.6----
2026-08-31 11:48 amESE 9.9 15.9----30.03- 82.8 85.6----
2026-08-31 11:42 amESE 9.9 19.0----30.03- 82.9 85.6----
2026-08-31 11:36 amESE 12.0 19.0----30.03- 83.1 85.6----
2026-08-31 11:30 amESE 12.0 19.0----30.04- 83.1 85.6----
2026-08-31 11:24 amESE 9.9 15.9----30.04- 83.3 85.6----
2026-08-31 11:18 amESE 8.0 17.1----30.04-- 85.6----
2026-08-31 11:12 amESE 13.0 18.1----30.03-- 85.6----
2026-08-31 11:06 amESE 12.0 19.0----30.03-- 85.6----
2026-08-31 11:00 amESE 8.0 17.1----30.03+0.04 82.9 85.6----
2026-08-31 10:54 amESE 13.0 22.0----30.03- 82.6 85.6----
2026-08-31 10:48 amESE 15.0 22.0----30.03- 82.6 85.6----
2026-08-31 10:42 amESE 11.1 20.0----30.04- 83.1 85.6----
2026-08-31 10:36 amESE 11.1 18.1----30.03- 83.3 85.6----
2026-08-31 10:30 amESE 11.1 18.1----30.03- 82.9 85.6----
2026-08-31 10:24 amESE 9.9 18.1----30.03- 82.9 85.6----
2026-08-31 10:18 amESE 13.0 19.0----30.03-- 85.6----
2026-08-31 10:12 amESE 9.9 15.0----30.02-- 85.8----
2026-08-31 10:06 amESE 7.0 20.0----30.02-- 85.8----
2026-08-31 10:00 amESE 12.0 19.0----30.02+0.04 82.8 85.8----
2026-08-31 09:54 amESE 9.9 17.1----30.01- 82.8 85.8----
2026-08-31 09:48 amESE 13.0 21.0----30.01- 82.6 85.8----
2026-08-31 09:42 amESE 13.0 20.0----30.01- 82.4 85.8----
2026-08-31 09:36 amESE 13.0 19.0----30.01- 82.4 85.8----
2026-08-31 09:30 amESE 9.9 17.1----30.01- 82.6 85.8----
2026-08-31 09:24 amESE 9.9 18.1----30.01- 82.4 85.8----
2026-08-31 09:18 amESE 8.9 17.1----30.01-- 85.8----
2026-08-31 09:12 amESE 9.9 15.0----30.01-- 85.8----
2026-08-31 09:06 amESE 8.9 18.1----30.01-- 85.8----
2026-08-31 09:00 amESE 8.9 15.9----30.01+0.04 82.2 85.8----
2026-08-31 08:54 amESE 9.9 15.9----30.01- 82.0 85.8----
2026-08-31 08:48 amESE 8.0 15.9----30.01-- 85.8----
2026-08-31 08:42 amESE 9.9 20.0----30.01-- 85.8----
2026-08-31 08:36 am E 12.0 22.9----30.01-- 85.8----
2026-08-31 08:30 am E 13.0 21.0----30.01- 82.6 85.8----
2026-08-31 08:24 am E 12.0 17.1----30.01- 82.9 85.8----
2026-08-31 08:18 amESE 9.9 15.9----30.00-- 85.8----
2026-08-31 08:12 am E 12.0 19.0----30.00-- 85.8----
2026-08-31 08:06 am E 9.9 18.1----30.00-- 85.8----
2026-08-31 08:00 am E 9.9 14.0----30.00+0.03 82.6 85.8----
2026-08-31 07:54 am E 9.9 15.0----30.00- 82.4 85.8----